This is the latest recevied weather packets stored in our database for station/object KJ4OVR-WX. If no packets are shown the sender has not sent any weather packets the latest 1 day(s).
| Time | Temp. | Humidity | Pressure | Rain* | Wind** | Luminosity | Snow |
|---|---|---|---|---|---|---|---|
| 1778085042 | 21.11° C | 90% | 1012.2 hPa | 0 mm | - | - | - |
| 1778084741 | 21.11° C | 90% | 1012.1 hPa | 0 mm | - | - | - |
| 1778083243 | 21.11° C | 92% | 1012 hPa | 0 mm | - | - | - |
| 1778082942 | 21.11° C | 92% | 1012.1 hPa | 0 mm | - | - | - |
| 1778082042 | 20.56° C | 93% | 1012.2 hPa | 0 mm | - | - | - |
| 1778080843 | 20.56° C | 94% | 1012.1 hPa | 0 mm | - | - | - |
| 1778080243 | 20° C | 94% | 1012 hPa | 0 mm | - | - | - |
| 1778079943 | 19.44° C | 94% | 1012 hPa | 0 mm | - | - | - |
| 1778079643 | 19.44° C | 93% | 1012.1 hPa | 0 mm | - | - | - |
| 1778079343 | 19.44° C | 93% | 1012 hPa | 0 mm | - | - | - |
| 1778078443 | 18.89° C | 93% | 1012.2 hPa | 0 mm | - | - | - |
| 1778076044 | 17.78° C | 92% | 1012.2 hPa | 0 mm | - | - | - |
| 1778075744 | 17.78° C | 92% | 1012.1 hPa | 0 mm | - | - | - |
| 1778074544 | 17.78° C | 90% | 1013.3 hPa | 0 mm | - | - | - |
| 1778073045 | 18.33° C | 88% | 1014 hPa | 0 mm | - | - | - |
| 1778072445 | 19.44° C | 87% | 1012.3 hPa | 0 mm | - | - | - |
| 1778071545 | 20° C | 84% | 1011.7 hPa | 0 mm | - | - | - |
| 1778070945 | 20° C | 82% | 1011.5 hPa | 0 mm | - | - | - |
| 1778069446 | 20.56° C | 82% | 1010.9 hPa | 0 mm | - | - | - |
| 1778068846 | 20.56° C | 81% | 1010.8 hPa | 0 mm | - | - | - |
| 1778067946 | 20.56° C | 81% | 1010.4 hPa | 0 mm | - | - | - |
| 1778067646 | 20.56° C | 80% | 1010.4 hPa | 0 mm | - | - | - |
| 1778067346 | 20.56° C | 80% | 1010.4 hPa | 0 mm | - | - | - |
| 1778065846 | 20.56° C | 79% | 1009.8 hPa | 0 mm | - | - | - |
| 1778064947 | 20.56° C | 78% | 1009.8 hPa | 0 mm | - | - | - |
* Rain latest hour (hover to see other rain measurements)
** Current wind speed in m/s (hover to see current wind gust speed)